Location: Bremen
(53.0793°N, 8.8017°E)
Time: 00:01:28
(UTC+02:00)

Tiros 1 - Visible Passes

Search period start: 13 April 2024 00:00
Search period end: 23 April 2024 00:00
Orbit: 625 x 657 km, 48.4° (Epoch: 11 April)

Date Brightness Start Highest point End Pass type
(mag) Time Alt. Az. Time Alt. Az. Time Alt. Az.
13 Apr 8.7 04:29:11 19° S 04:30:49 23° SSE 04:34:24 10° E visible
14 Apr 9.5 03:14:33 12° SE 03:14:33 12° SE 03:15:28 10° ESE visible
14 Apr 8.1 04:52:05 19° SSW 04:54:37 33° SSE 04:58:44 10° E visible
15 Apr 8.7 03:37:25 21° SE 03:37:25 21° SE 03:40:37 10° E visible
15 Apr 7.7 05:14:56 14° SW 05:18:32 42° SSE 05:22:52 10° E visible
16 Apr 8.0 04:00:15 29° S 04:00:57 31° SSE 04:05:00 10° E visible
16 Apr 7.6 05:38:04 10° WSW 05:42:30 47° S 05:46:55 10° ESE visible
17 Apr 9.2 02:45:33 15° ESE 02:45:33 15° ESE 02:46:48 10° ESE visible
17 Apr 7.7 04:23:03 28° SW 04:24:51 41° SSE 04:29:10 10° E visible
18 Apr 8.4 03:08:19 26° SE 03:08:19 26° SE 03:11:15 10° E visible
18 Apr 7.5 04:45:51 19° WSW 04:48:49 47° S 04:53:12 10° ESE visible
19 Apr 7.6 03:31:06 39° SSE 03:31:09 39° SSE 03:35:27 10° E visible
19 Apr 7.5 05:08:37 11° WSW 05:12:47 47° S 05:17:11 10° ESE visible
20 Apr 9.2 02:16:22 16° ESE 02:16:22 16° ESE 02:17:30 10° E visible
20 Apr 7.4 03:53:53 37° SW 03:55:06 46° S 03:59:31 10° ESE visible
20 Apr 7.7 05:32:25 10° W 05:36:44 40° SSW 05:41:01 10° SE visible
21 Apr 8.4 02:39:09 27° ESE 02:39:09 27° ESE 02:41:43 10° E visible
21 Apr 7.4 04:16:41 24° WSW 04:19:04 47° S 04:23:29 10° ESE visible
22 Apr 7.6 03:01:58 43° SSE 03:01:58 43° SSE 03:05:47 10° E visible
22 Apr 7.5 04:39:29 15° WSW 04:43:01 42° SSW 04:47:21 10° ESE visible
